TimeEST,TemperatureF,Dew PointF,Humidity,Sea Level PressureIn,VisibilityMPH,Wind Direction,Wind SpeedMPH,Gust SpeedMPH,PrecipitationIn,Events,Conditions,WindDirDegrees,DateUTC
12:53 AM,46.9,46.0,97,30.05,5.0,East,13.8,20.7,0.02,Rain,Light Rain,90,2012-12-10 05:53:00
1:53 AM,46.9,46.0,97,30.02,5.0,ENE,10.4,-,0.05,Rain,Light Rain,70,2012-12-10 06:53:00
2:09 AM,48.2,46.4,93,30.01,2.5,ENE,10.4,-,0.04,Rain,Rain,70,2012-12-10 07:09:00
2:44 AM,48.2,46.4,93,29.99,4.0,ENE,8.1,-,0.10,Rain,Light Rain,70,2012-12-10 07:44:00
2:53 AM,48.0,48.0,100,29.99,5.0,NNE,3.5,-,0.11,Rain,Light Rain,20,2012-12-10 07:53:00
3:32 AM,48.2,48.2,100,29.94,2.5,NE,4.6,-,0.03,Rain,Light Rain,50,2012-12-10 08:32:00
3:48 AM,48.2,48.2,100,29.93,4.0,Variable,4.6,-,0.03,Rain,Light Rain,0,2012-12-10 08:48:00
3:53 AM,48.0,48.0,100,29.93,5.0,NNE,3.5,-,0.03,Rain,Light Rain,20,2012-12-10 08:53:00
4:27 AM,48.2,48.2,100,29.91,9.0,Calm,Calm,-,0.00,,Overcast,0,2012-12-10 09:27:00
4:53 AM,48.0,46.9,96,29.90,2.5,ENE,3.5,-,0.00,Rain,Light Rain,70,2012-12-10 09:53:00
5:04 AM,48.2,48.2,100,29.89,1.5,Calm,Calm,-,0.05,Rain,Heavy Rain,0,2012-12-10 10:04:00
5:18 AM,53.6,53.6,100,29.88,3.0,South,6.9,-,0.09,Rain,Rain,180,2012-12-10 10:18:00
5:35 AM,53.6,53.6,100,29.87,2.5,SSW,8.1,-,0.12,Rain,Light Rain,200,2012-12-10 10:35:00
5:42 AM,55.4,53.6,94,29.87,3.0,SSW,9.2,-,0.13,Rain,Light Rain,200,2012-12-10 10:42:00
5:50 AM,55.4,55.4,100,29.87,2.5,SSW,9.2,-,0.15,Rain,Rain,210,2012-12-10 10:50:00
5:53 AM,55.0,55.0,100,29.87,2.5,SSW,8.1,-,0.16,Rain,Light Rain,210,2012-12-10 10:53:00
6:53 AM,57.0,57.0,100,29.85,3.0,SSW,12.7,23.0,0.13,Rain,Light Rain,210,2012-12-10 11:53:00
7:53 AM,57.9,57.0,97,29.84,8.0,SW,13.8,20.7,0.01,,Overcast,220,2012-12-10 12:53:00
8:00 AM,57.2,57.2,100,29.83,10.0,SW,15.0,20.7,N/A,,Overcast,220,2012-12-10 13:00:00
8:28 AM,57.2,57.2,100,29.83,2.5,SW,11.5,-,N/A,,Overcast,230,2012-12-10 13:28:00
8:43 AM,55.4,55.4,100,29.83,1.5,SW,9.2,17.3,N/A,,Overcast,230,2012-12-10 13:43:00
8:53 AM,57.0,57.0,100,29.83,2.0,SW,10.4,19.6,N/A,,Overcast,230,2012-12-10 13:53:00
9:12 AM,57.2,57.2,100,29.83,1.5,SW,13.8,18.4,N/A,,Overcast,220,2012-12-10 14:12:00
9:53 AM,57.9,57.9,100,29.81,1.5,SW,13.8,23.0,N/A,,Overcast,220,2012-12-10 14:53:00
10:07 AM,57.2,57.2,100,29.81,2.5,SW,10.4,18.4,N/A,,Overcast,220,2012-12-10 15:07:00
10:36 AM,57.2,57.2,100,29.79,1.5,SW,10.4,17.3,0.00,Rain,Light Rain,220,2012-12-10 15:36:00
11:21 AM,57.2,57.2,100,29.75,1.8,WSW,9.2,19.6,0.01,Rain-Thunderstorm,Light Thunderstorms and Rain,240,2012-12-10 16:21:00
11:36 AM,57.2,57.2,100,29.75,1.5,WSW,9.2,-,0.04,Rain-Thunderstorm,Light Rain,240,2012-12-10 16:36:00
11:53 AM,57.9,57.9,100,29.73,1.0,SW,9.2,-,0.15,Rain-Thunderstorm,Light Thunderstorms and Rain,220,2012-12-10 16:53:00
11:58 AM,59.0,59.0,100,29.73,3.0,SW,6.9,-,0.00,Rain-Thunderstorm,Light Rain,230,2012-12-10 16:58:00
12:05 PM,59.0,59.0,100,29.73,5.0,SW,8.1,-,0.00,Rain-Thunderstorm,Light Rain,220,2012-12-10 17:05:00
12:07 PM,59.0,59.0,100,29.72,5.0,SW,8.1,-,0.00,Rain,Light Rain,230,2012-12-10 17:07:00
12:14 PM,59.0,59.0,100,29.74,3.0,WSW,9.2,-,0.01,Rain-Thunderstorm,Light Rain,240,2012-12-10 17:14:00
12:18 PM,57.2,57.2,100,29.73,1.5,SW,10.4,16.1,0.06,Rain-Thunderstorm,Rain,220,2012-12-10 17:18:00
12:32 PM,57.2,57.2,100,29.71,3.0,Variable,5.8,-,0.11,Rain-Thunderstorm,Light Thunderstorms and Rain,0,2012-12-10 17:32:00
12:50 PM,57.2,57.2,100,29.69,5.0,SW,3.5,-,0.12,,Overcast,230,2012-12-10 17:50:00
12:53 PM,57.9,57.9,100,29.69,5.0,SW,4.6,-,0.12,,Overcast,230,2012-12-10 17:53:00
1:06 PM,57.2,57.2,100,29.69,3.0,SSW,5.8,-,N/A,Thunderstorm,Overcast,210,2012-12-10 18:06:00
1:15 PM,57.2,57.2,100,29.69,1.8,SW,9.2,-,0.03,Rain-Thunderstorm,Light Thunderstorms and Rain,220,2012-12-10 18:15:00
1:19 PM,57.2,57.2,100,29.67,0.8,SSW,11.5,18.4,0.16,Rain,Heavy Rain,210,2012-12-10 18:19:00
1:31 PM,59.0,59.0,100,29.67,1.8,SSW,12.7,19.6,0.21,Rain,Light Rain,210,2012-12-10 18:31:00
1:33 PM,59.0,59.0,100,29.67,3.0,SSW,13.8,19.6,0.21,Rain,Light Rain,210,2012-12-10 18:33:00
1:47 PM,57.2,57.2,100,29.67,2.5,SSW,10.4,-,0.21,,Overcast,210,2012-12-10 18:47:00
1:53 PM,57.9,57.9,100,29.66,1.5,SSW,9.2,-,0.21,,Overcast,210,2012-12-10 18:53:00
2:06 PM,57.2,57.2,100,29.66,2.5,SSW,12.7,-,N/A,,Overcast,210,2012-12-10 19:06:00
2:27 PM,57.2,57.2,100,29.65,4.0,SSW,11.5,20.7,0.00,Rain,Light Rain,210,2012-12-10 19:27:00
2:39 PM,57.2,57.2,100,29.66,1.8,SSW,12.7,-,0.00,,Overcast,210,2012-12-10 19:39:00
2:51 PM,57.2,57.2,100,29.65,0.5,SSW,10.4,20.7,0.00,Fog,Fog,210,2012-12-10 19:51:00
2:53 PM,57.0,57.0,100,29.65,0.5,SSW,12.7,20.7,0.00,Fog,Fog,210,2012-12-10 19:53:00
3:07 PM,57.2,57.2,100,29.65,2.5,SSW,13.8,21.9,0.04,Rain,Light Rain,210,2012-12-10 20:07:00
3:14 PM,57.2,57.2,100,29.64,4.0,SW,12.7,20.7,0.04,,Overcast,220,2012-12-10 20:14:00
3:29 PM,57.2,57.2,100,29.64,1.5,SSW,11.5,20.7,0.04,,Overcast,210,2012-12-10 20:29:00
3:42 PM,57.2,57.2,100,29.63,0.8,SSW,11.5,-,0.04,,Overcast,210,2012-12-10 20:42:00
3:53 PM,57.0,57.0,100,29.63,0.8,SSW,11.5,-,0.04,Rain,Light Rain,210,2012-12-10 20:53:00
4:26 PM,57.2,57.2,100,29.61,1.2,SSW,15.0,20.7,0.01,Rain,Light Rain,210,2012-12-10 21:26:00
4:39 PM,57.2,57.2,100,29.61,3.0,SSW,13.8,20.7,0.04,Rain,Light Rain,210,2012-12-10 21:39:00
4:51 PM,57.2,57.2,100,29.60,1.8,SSW,13.8,20.7,0.07,Rain,Rain,210,2012-12-10 21:51:00
4:52 PM,57.0,57.0,100,29.60,1.8,SSW,12.7,20.7,0.08,Rain,Rain,210,2012-12-10 21:52:00
5:03 PM,57.2,57.2,100,29.59,1.8,SSW,12.7,23.0,0.05,Rain,Rain,210,2012-12-10 22:03:00
5:12 PM,57.2,57.2,100,29.59,3.0,SSW,10.4,19.6,0.05,Rain,Light Rain,210,2012-12-10 22:12:00
5:27 PM,57.2,57.2,100,29.58,2.5,SSW,10.4,18.4,0.07,Rain,Light Rain,210,2012-12-10 22:27:00
5:39 PM,57.2,57.2,100,29.57,3.0,SW,6.9,-,0.08,Rain,Light Rain,220,2012-12-10 22:39:00
5:53 PM,57.0,57.0,100,29.57,2.0,West,8.1,-,0.11,Rain,Rain,260,2012-12-10 22:53:00
6:01 PM,55.4,55.4,100,29.58,1.5,WSW,5.8,-,0.06,Rain,Heavy Rain,250,2012-12-10 23:01:00
6:07 PM,55.4,55.4,100,29.57,1.5,SW,3.5,-,0.09,Rain-Thunderstorm,Heavy Rain,230,2012-12-10 23:07:00
6:14 PM,55.4,55.4,100,29.57,2.5,SW,4.6,-,0.09,Rain-Thunderstorm,Light Rain,220,2012-12-10 23:14:00
6:21 PM,55.4,55.4,100,29.57,4.0,SW,3.5,-,0.09,Rain-Thunderstorm,Light Rain,220,2012-12-10 23:21:00
6:28 PM,55.4,55.4,100,29.57,5.0,SW,5.8,-,0.09,Rain,Light Rain,230,2012-12-10 23:28:00
6:35 PM,55.4,55.4,100,29.57,4.0,WSW,5.8,-,0.09,,Overcast,250,2012-12-10 23:35:00
6:46 PM,55.4,55.4,100,29.56,1.8,WSW,4.6,-,0.09,,Overcast,250,2012-12-10 23:46:00
6:53 PM,55.9,55.9,100,29.56,2.0,WSW,5.8,-,0.09,,Overcast,240,2012-12-10 23:53:00
7:04 PM,55.4,55.4,100,29.55,1.2,SW,4.6,-,0.00,Rain,Light Rain,220,2012-12-11 00:04:00
7:15 PM,55.4,55.4,100,29.56,0.5,WSW,5.8,-,0.00,Fog,Fog,250,2012-12-11 00:15:00
7:34 PM,55.4,55.4,100,29.56,2.0,WSW,6.9,-,0.00,,Overcast,250,2012-12-11 00:34:00
7:43 PM,55.4,55.4,100,29.56,6.0,WSW,6.9,-,0.00,,Overcast,240,2012-12-11 00:43:00
7:53 PM,55.9,55.9,100,29.55,3.0,WSW,6.9,-,0.00,,Overcast,240,2012-12-11 00:53:00
8:02 PM,55.4,55.4,100,29.56,1.8,WSW,8.1,-,N/A,,Overcast,250,2012-12-11 01:02:00
8:16 PM,55.4,55.4,100,29.55,0.5,WSW,5.8,-,N/A,Fog,Fog,250,2012-12-11 01:16:00
8:40 PM,53.6,53.6,100,29.55,0.2,WSW,5.8,-,N/A,Fog,Fog,240,2012-12-11 01:40:00
8:53 PM,54.0,54.0,100,29.55,0.2,WSW,6.9,-,N/A,Fog,Fog,240,2012-12-11 01:53:00
9:53 PM,53.1,53.1,100,29.55,0.2,SW,4.6,-,N/A,Fog,Fog,220,2012-12-11 02:53:00
10:31 PM,53.6,53.6,100,29.56,0.5,SW,5.8,-,N/A,Fog,Fog,230,2012-12-11 03:31:00
10:53 PM,53.1,53.1,100,29.56,0.5,SW,3.5,-,N/A,Fog,Fog,230,2012-12-11 03:53:00
11:53 PM,53.1,53.1,100,29.57,0.2,West,3.5,-,N/A,Fog,Fog,260,2012-12-11 04:53:00